Regional Weather Roundup
Issued by NWS Sioux Falls, SD

Home | Current Version | Previous Version | Text Only | Print | Product List | Glossary On
Versions: 1 2 3 4 5 6 7 8 9 10 11 12 13 14 15 16 17 18 19 20 21 22 23 24 25 26 27 28 29 30 31 32 33 34 35 36 37 38 39 40 41 42 43 44 45 46 47 48 49 50
000
ASUS43 KFSD 280710
RWRFSD

WEATHER ROUNDUP FOR SE SOUTH DAKOTA/SW MINNESOTA/NW IOWA
NATIONAL WEATHER SERVICE SIOUX FALLS SD
200 AM CDT THU AUG 28 2014

NOTE: "FAIR" INDICATES FEW OR NO CLOUDS BELOW 12,000 FEET WITH NO
SIGNIFICANT WEATHER AND OR OBSTRUCTIONS TO VISIBILITY.


SDZ038>040-050-052>070-280800-
SOUTHEAST SOUTH DAKOTA

CITY           SKY/WX    TMP DP  RH WIND       PRES   REMARKS
CHAMBERLAIN    LGT RAIN  66  66 100 SE9       30.00F
HURON          CLOUDY    68  65  90 SE6       30.00F
MADISON        CLOUDY    66  66 100 SE10      30.06S
MITCHELL       CLOUDY    69  67  93 SE12      30.02S
SIOUX FALLS    CLOUDY    69  66  90 SE8       30.05F
WINNER         CLOUDY    68  67  96 E9        29.98F
YANKTON        CLOUDY    68  66  94 E6        30.01F
$$

MNZ071-072-080-081-089-090-097-098-280800-
SOUTHWEST MINNESOTA

CITY           SKY/WX    TMP DP  RH WIND       PRES   REMARKS
FAIRMONT       MOCLDY    61  57  88 SE6       30.10F
JACKSON        MOCLDY    63  59  88 E7        30.10F
LUVERNE        CLOUDY    68  63  83 SE5       30.07F
MARSHALL       CLOUDY    64  57  77 SE8       30.07F
MONTEVIDEO     PTCLDY    63  61  94 S6        30.09F
PIPESTONE      CLOUDY    66  63  88 SE7       30.07F
REDWOOD FALLS  PTCLDY    62  58  86 SE7       30.09F
TRACY          CLOUDY    65  61  86 SE5       30.09F
WINDOM         MOCLDY    64  59  82 SE6       30.09F
WORTHINGTON    CLOUDY    64  63  94 E6        30.10F
$$

IAZ001>003-012>014-020>022-031-032-NEZ013-014-SDZ071-280800-
NORTHWEST IOWA

CITY           SKY/WX    TMP DP  RH WIND       PRES   REMARKS
DENISON        LGT RAIN  68  68 100 VRB6      30.04F
ESTHERVILLE    MOCLDY    63  60  90 E7        30.09F
LE MARS          N/A     70  68  94 SE5       30.05F
ORANGE CITY    CLOUDY    70  66  88 SE6       30.06F
SHELDON        CLOUDY    66  64  94 E6        30.06S
SIOUX CITY     LGT RAIN  69  67  93 SE7       30.03F
SPENCER        CLOUDY    67  63  87 E7        30.08F
STORM LAKE     CLOUDY    66  66 100 SE7       30.07F
$$

ABBREVIATIONS USED IN REMARKS
   TC - TEMPERATURE IN CELSIUS
  WCI - WIND CHILL INDEX
   HX - HEAT INDEX
  VSB - VISIBILITY




USA.gov is the U.S. government's official web portal to all federal, state and local government web resources and services.